This is the latest recevied weather packets stored in our database for station/object IK6ZNK-3. If no packets are shown the sender has not sent any weather packets the latest 10 day(s).
| Time | Temp. | Humidity | Pressure | Rain* | Wind** | Luminosity | Snow |
|---|---|---|---|---|---|---|---|
| 1777874406 | 20° C | 54% | 1010.4 hPa | 0 mm | - | - | - |
| 1777873806 | 21.11° C | 47% | 1010.4 hPa | 0 mm | - | - | - |
| 1777873207 | 19.44° C | 48% | 1010.1 hPa | 0 mm | - | - | - |
| 1777872607 | 18.89° C | 47% | 1009.9 hPa | 0 mm | - | - | - |
| 1777872007 | 19.44° C | 47% | 1010.2 hPa | 0 mm | - | - | - |
| 1777871407 | 19.44° C | 48% | 1010 hPa | 0 mm | - | - | - |
| 1777870807 | 18.33° C | 49% | 1010 hPa | 0 mm | - | - | - |
| 1777870206 | 16.67° C | 51% | 1009.9 hPa | 0 mm | - | - | - |
| 1777869606 | 16.11° C | 53% | 1009.9 hPa | 0 mm | - | - | - |
| 1777869006 | 16.11° C | 55% | 1009.8 hPa | 0 mm | - | - | - |
| 1777868406 | 16.11° C | 55% | 1009.8 hPa | 0 mm | - | - | - |
| 1777867807 | 16.11° C | 54% | 1009.7 hPa | 0 mm | - | - | - |
| 1777867207 | 16.11° C | 55% | 1009.5 hPa | 0 mm | - | - | - |
| 1777866606 | 16.67° C | 54% | 1009.6 hPa | 0 mm | - | - | - |
| 1777866006 | 16.67° C | 54% | 1009.4 hPa | 0 mm | - | - | - |
| 1777865406 | 16.67° C | 54% | 1009.6 hPa | 0 mm | - | - | - |
| 1777864806 | 16.11° C | 55% | 1009.5 hPa | 0 mm | - | - | - |
| 1777864207 | 16.67° C | 54% | 1009.6 hPa | 0 mm | - | - | - |
| 1777863607 | 16.67° C | 54% | 1009.7 hPa | 0 mm | - | - | - |
| 1777863007 | 16.67° C | 54% | 1009.7 hPa | 0 mm | - | - | - |
| 1777862406 | 16.67° C | 54% | 1009.9 hPa | 0 mm | - | - | - |
| 1777861806 | 16.67° C | 53% | 1009.9 hPa | 0 mm | - | - | - |
| 1777861206 | 17.22° C | 54% | 1009.9 hPa | 0 mm | - | - | - |
| 1777860606 | 17.22° C | 53% | 1010.1 hPa | 0 mm | - | - | - |
| 1777860007 | 16.67° C | 54% | 1010 hPa | 0 mm | - | - | - |
* Rain latest hour (hover to see other rain measurements)
** Current wind speed in m/s (hover to see current wind gust speed)